Weather History for Sussex, NJ

Change the Weather History Date:

Saturday, March 16, 2013

  Actual Average Record
Temperature  
Mean Temperature 32 °F -  
Max Temperature 37 °F 46 °F 78 °F (1990)
Min Temperature 28 °F 23 °F 2 °F (1993)
Degree Days  
Heating Degree Days 32    
Moisture  
Dew Point 24 °F    
Average Humidity 75    
Maximum Humidity 88    
Minimum Humidity 48    
Precipitation  
Precipitation 0.04 in - - ()
Sea Level Pressure  
Sea Level Pressure 29.82 in    
Wind  
Wind Speed 3 mph (NE)    
Max Wind Speed 6 mph    
Max Gust Speed -    
Visibility 6 miles    
Events Fog , Snow    
Averages and records for this station are not official NWS values.
T = Trace of Precipitation, MM = Missing Value Source: NWS Daily Summary

Daily Weather History Graph

Daily Weather History Graph

Search for Another Location

Airport:

Trip Planner

Search our weather history database for the weather conditions in past years. The results will help you decide how hot, cold, wet, or windy it might be!

Date:

Astronomy

Mar. 16, 2013 Rise Set
Actual Time 7:08 AM EDT 7:06 PM EDT
Civil Twilight 6:40 AM EDT 7:34 PM EDT
Nautical Twilight 6:08 AM EDT 8:06 PM EDT
Astronomical Twilight 5:36 AM EDT 8:38 PM EDT
Moon 9:33 AM EDT (3/16) No Moon Set
Length of Visible Light 12h 53m
Length of Day
11h 58m
Waxing Crescent, 23% of the Moon is Illuminated
Mar 16
Waxing Crescent
Mar 19
First Quarter
Mar 27
Full
Apr 3
Last Quarter
Apr 10
New

Hourly Weather History & Observations

Time (EDT) Temp. Windchill Dew Point Humidity Pressure Visibility Wind Dir Wind Speed Gust Speed Precip Events Conditions
12:53 AM 37.0 °F 33.3 °F 21.0 °F 52% 29.79 in 10.0 mi Variable 4.6 mph - N/A   Clear
1:53 AM 37.0 °F 34.5 °F 19.9 °F 50% 29.79 in 10.0 mi Variable 3.5 mph - N/A   Clear
2:53 AM 36.0 °F - 19.9 °F 52% 29.81 in 10.0 mi Calm Calm - N/A   Overcast
3:53 AM 35.1 °F 30.1 °F 19.9 °F 54% 29.81 in 10.0 mi North 5.8 mph - N/A   Mostly Cloudy
4:53 AM 32.0 °F 27.5 °F 18.0 °F 56% 29.82 in 10.0 mi Variable 4.6 mph - N/A   Clear
5:53 AM 32.0 °F 28.7 °F 17.1 °F 54% 29.83 in 10.0 mi NNW 3.5 mph - N/A   Clear
6:53 AM 30.0 °F - 17.1 °F 59% 29.84 in 10.0 mi Calm Calm - N/A   Clear
7:53 AM 28.0 °F - 19.0 °F 69% 29.86 in 10.0 mi Calm Calm - N/A   Partly Cloudy
8:53 AM 30.9 °F - 21.9 °F 69% 29.86 in 10.0 mi Calm Calm - N/A   Overcast
9:53 AM 34.0 °F - 18.0 °F 52% 29.86 in 10.0 mi Calm Calm - 0.00 in   Overcast
10:53 AM 33.1 °F 27.7 °F 19.0 °F 56% 29.85 in 10.0 mi NNE 5.8 mph - 0.00 in   Overcast
11:53 AM 35.1 °F - 19.0 °F 52% 29.83 in 10.0 mi Calm Calm - N/A   Overcast
12:53 PM 35.1 °F - 17.1 °F 48% 29.81 in 10.0 mi Calm Calm - 0.00 in   Overcast
1:37 PM 33.8 °F 30.8 °F 21.2 °F 60% 29.81 in 4.0 mi NNW 3.5 mph - 0.00 in Snow Light Snow
1:53 PM 32.0 °F - 24.1 °F 73% 29.83 in 1.8 mi Calm Calm - 0.00 in Snow Light Snow
2:03 PM 30.2 °F 25.4 °F 26.6 °F 86% 29.83 in 1.0 mi NNE 4.6 mph - 0.00 in Snow Light Snow
2:11 PM 30.2 °F - 26.6 °F 86% 29.82 in 0.5 mi Calm Calm - 0.00 in Fog , Snow Snow
2:25 PM 30.2 °F - 26.6 °F 86% 29.81 in 0.2 mi Calm Calm - 0.01 in Fog , Snow Snow
2:45 PM 30.2 °F - 26.6 °F 86% 29.80 in 0.8 mi Calm Calm - 0.02 in Snow Light Snow
2:53 PM 30.0 °F 26.5 °F 27.0 °F 88% 29.81 in 1.0 mi ENE 3.5 mph - 0.02 in Snow Light Snow
3:04 PM 30.2 °F - 26.6 °F 86% 29.80 in 2.0 mi Calm Calm - 0.01 in Snow Light Snow
3:12 PM 30.2 °F 25.4 °F 26.6 °F 86% 29.79 in 3.0 mi ENE 4.6 mph - 0.01 in Snow Light Snow
3:24 PM 30.2 °F 25.4 °F 26.6 °F 86% 29.79 in 2.0 mi NNE 4.6 mph - 0.01 in Snow Light Snow
3:31 PM 30.2 °F 24.3 °F 26.6 °F 86% 29.79 in 1.5 mi ENE 5.8 mph - 0.01 in Snow Light Snow
3:36 PM 30.2 °F 25.4 °F 26.6 °F 86% 29.78 in 1.0 mi NE 4.6 mph - 0.01 in Snow Light Snow
3:46 PM 30.2 °F 25.4 °F 26.6 °F 86% 29.78 in 1.0 mi NE 4.6 mph - 0.01 in Snow Light Snow
3:53 PM 30.9 °F 26.2 °F 26.1 °F 82% 29.79 in 0.8 mi ENE 4.6 mph - 0.01 in Snow Light Snow
4:02 PM 30.2 °F 26.7 °F 26.6 °F 86% 29.78 in 1.2 mi NE 3.5 mph - 0.00 in Snow Light Snow
4:28 PM 30.2 °F 25.4 °F 26.6 °F 86% 29.77 in 1.5 mi East 4.6 mph - 0.00 in Snow Light Snow
4:40 PM 30.2 °F 26.7 °F 26.6 °F 86% 29.77 in 2.5 mi East 3.5 mph - 0.00 in Snow Light Snow
4:53 PM 30.9 °F 27.5 °F 27.0 °F 85% 29.79 in 7.0 mi East 3.5 mph - 0.00 in   Overcast
5:03 PM 30.2 °F 26.7 °F 26.6 °F 86% 29.78 in 10.0 mi ENE 3.5 mph - 0.00 in   Overcast
5:10 PM 30.2 °F 26.7 °F 26.6 °F 86% 29.78 in 10.0 mi NE 3.5 mph - 0.00 in   Overcast
5:32 PM 30.2 °F 26.7 °F 26.6 °F 86% 29.78 in 9.0 mi ENE 3.5 mph - 0.00 in Snow Light Snow
5:53 PM 30.9 °F - 26.1 °F 82% 29.81 in 3.0 mi Calm Calm - 0.00 in Snow Light Snow
6:53 PM 30.9 °F - 26.1 °F 82% 29.82 in 9.0 mi Calm Calm - 0.01 in   Overcast
7:53 PM 30.9 °F - 27.0 °F 85% 29.84 in 7.0 mi Calm Calm - 0.00 in   Overcast
8:53 PM 30.9 °F - 27.0 °F 85% 29.86 in 10.0 mi Calm Calm - 0.00 in   Overcast
9:53 PM 30.9 °F - 26.1 °F 82% 29.88 in 10.0 mi Calm Calm - N/A   Overcast
10:53 PM 30.9 °F - 27.0 °F 85% 29.90 in 10.0 mi Calm Calm - N/A   Overcast
11:53 PM 30.9 °F - 27.0 °F 85% 29.92 in 10.0 mi Calm Calm - N/A   Overcast